Regional Weather Roundup
Issued by NWS Upton, NY

Current Version | Previous Version | Graphics & Text | Print | Product List | Glossary Off
Versions: 1 2 3 4 5 6 7 8 9 10 11 12 13 14 15 16 17 18 19 20 21 22 23 24 25 26 27 28 29 30 31 32 33 34 35 36 37 38 39 40 41 42 43 44 45 46 47 48 49 50

000
ASUS41 KOKX 230905
RWROKX

REGIONAL WEATHER ROUNDUP
NATIONAL WEATHER SERVICE NEW YORK NY
500 AM EDT WED JUL 23 2014

NOTE: "FAIR" INDICATES FEW OR NO CLOUDS BELOW 12,000 FEET WITH NO
SIGNIFICANT WEATHER AND/OR OBSTRUCTIONS TO VISIBILITY.

NYZ071-072-176-178-NJZ106-104-231000-
NEW YORK CITY METRO AREA


CITY           SKY/WX    TMP DP  RH WIND       PRES   REMARKS
CENTRAL PARK   PTCLDY    73  63  70 VRB5      30.02F
LAGUARDIA APRT PTCLDY    74  62  66 S9        29.98F
KENNEDY INTL   PTCLDY    72  64  76 SW7       30.00F
NEWARK/LIBERTY PTCLDY    72  62  71 SW8       29.99F
BRNX BOT. GARD   N/A     73  63  68 SW8       29.99F
TETERBORO      MOCLDY    74  63  68 S6        29.98S
$$

NYZ177-179-078>081-231000-
LONG ISLAND NEW YORK

CITY           SKY/WX    TMP DP  RH WIND       PRES   REMARKS
FARMINGDALE    PTCLDY    70  64  81 SW7       30.00F
ISLIP          PTCLDY    72  66  81 SW8       29.99S
SHIRLEY        PTCLDY    71  68  90 S9        30.01S
WESTHAMPTON    CLOUDY    71  68  90 SW9       30.02S
MONTAUK POINT    N/A     71  68  90 SW6       30.01S
$$

NYZ052-065-067-231000-
HUDSON VALLEY

CITY           SKY/WX    TMP DP  RH WIND       PRES   REMARKS
WHITE PLAINS   PTCLDY    71  64  78 CALM      29.99F
NEWBURGH       NOT AVBL
MONTGOMERY     CLEAR     69  67  93 CALM      29.98S
POUGHKEEPSIE   CLEAR     71  68  90 CALM      29.95F
ALBANY         PTCLDY    74  68  81 S8        29.91F
$$

NJZ001-105-106-008-010-013-015-019>022-104-231000-
NEW JERSEY

CITY           SKY/WX    TMP DP  RH WIND       PRES   REMARKS
NEWARK/LIBERTY PTCLDY    72  62  71 SW8       29.99F
TETERBORO      MOCLDY    74  63  68 S6        29.98S
CALDWELL       PTCLDY    72  62  71 S5        29.99F
MORRISTOWN     MOCLDY    72  64  78 CALM      29.99F
SOMERVILLE     CLEAR     66  64  93 CALM      29.98F
LINDEN         FAIR      72  63  72 CALM      30.01F
SUSSEX         PTCLDY    69  65  86 CALM      29.98F
ANDOVER          N/A     69  66  90 CALM      30.00F
TRENTON        CLEAR     69  63  81 CALM      30.00F
MILLVILLE      CLEAR     67  66  97 CALM      30.02F
ATLANTIC CITY  CLEAR     69  67  93 CALM      30.02F
WRIGHTSTOWN    CLEAR     67  67  99 SW3       30.00F
TOMS RIVER     CLEAR     68  66  94 SW3       30.02F
BELMAR         PTCLDY    70  64  83 SW6       30.01F
$$

PAZ047>061-062-071-231000-
EASTERN PENNSYLVANIA

CITY           SKY/WX    TMP DP  RH WIND       PRES   REMARKS
PHILADELPHIA   PTCLDY    72  64  76 S8        30.02S
ALLENTOWN      PTCLDY    70  65  84 CALM      30.00F
SCRANTON       CLEAR     72  66  81 CALM      29.99F
$$

CTZ002-004>006-009-010-012-RIZ004-006-007-MAZ004-011-015-231000-
SOUTHERN NEW ENGLAND
 IN CT

CITY           SKY/WX    TMP DP  RH WIND       PRES   REMARKS
BRADLEY INTL   CLEAR     71  64  78 S8        29.95S
HARTFORD       PTCLDY    71  64  78 S6        29.96S
DANBURY        CLEAR     71  63  75 SW3       30.00F
WTRBRY/OXFORD  CLEAR     68  63  83 SW3       30.01F
BRIDGEPORT     CLEAR     73  65  75 SW8       29.98F
MERIDEN        CLEAR     69  64  84 S5        29.97F
NEW HAVEN      CLEAR     74  66  76 SW7       29.98F
CHESTER        FAIR      70  64  83 SW5       30.00F
GROTON         CLEAR     68  65  90 S3        29.98F
WILLIMANTIC    MOCLDY    67  63  87 CALM      29.98F

 IN RI

CITY           SKY/WX    TMP DP  RH WIND       PRES   REMARKS
PROVIDENCE     CLEAR     70  62  76 S6        29.98F
BLOCK ISLAND   CLOUDY    68  64  88 SW13      30.01R
WESTERLY       CLEAR     69  65  86 CALM      30.00S

 IN MA

CITY           SKY/WX    TMP DP  RH WIND       PRES   REMARKS
BOSTON         PTCLDY    72  65  78 SW10      29.93F
WORCESTER      CLEAR     67  65  93 SW10      29.98F
WESTFIELD      CLEAR     69  65  86 S7        29.95S
PROVINCETOWN   CLEAR     68  63  83 S13       29.96F
NANTUCKET      CLEAR     67  65  93 SW9       30.01S
$$

ANZ330-335-338-340-345-350-353-355-231000-
COASTAL MARINE OBSERVATIONS


STATION/POSITION TIME  SKY/WX   TEMP    WIND        PRES    VSBY  WAVE
                                AIR SEA DIR/SP/G                  HT/PER
                 (UTC)          (F)     (DEG/KT/KT) (MB)    (MI)  (FT/S)
NY HARB ENTRANCE NOT AVBL
4S FIRE IS       NOT AVBL
23SW MTP         0900            70 70              1015.6          3/ 5
HUDSON CANYON    0900            72 73  230/ 10/ 10 1016.8          2/ 7
EXECUTION ROCKS  0900            73 71  200/  8/ 10   N/A
WESTERN LI SOUND 0900            73     210/  8/  8   N/A           0
CENTRAL LI SOUND 0800            72 72  210/ 12/ 14   N/A           1/ 3
EASTERN LI SOUND 0800            69 66  230/  6/  8   N/A
ROBBINS REEF     0900            72     230/  6/  8   N/A
$$


>>>>>>>>>>>>>>>>>>>>>>>>>>>> KEY <<<<<<<<<<<<<<<<<<<<<<<<<<<
>                                                          <
>     SKY/WX - SKY CONDITION/PRESENT WEATHER               <
>     TMP    - TEMPERATURE IN FAHRENHEIT                   <
>     DP     - DEWPOINT IN FAHRENHEIT                      <
>     RH     - RELATIVE HUMIDITY IN PERCENT                <
>     WIND   - DIRECTION AND SPEED IN MPH                  <
>     PRES   - MEAN SEA LEVEL PRESSURE IN INCHES OF HG     <
>     WCI    - WIND CHILL INDEX                            <
>     VSB    - VISIBILITY IN MILES                         <
>     HX     - HEAT INDEX                                  <
>     TC     - TEMPERATURE IN CELSIUS                      <
>     VRB    - VARIABLE WIND DIRECTION                     <
>                                                          <
>>>>>>>>>>>>>>>>>>>>>>>>>>>> KEY <<<<<<<<<<<<<<<<<<<<<<<<<<<





USA.gov is the U.S. government's official web portal to all federal, state and local government web resources and services.